Lone Rock, WI

2:54 PM CST on January 23, 2018 (GMT -0600)
Tri-County Regional

Weather History for KLNR - October, 2013

Change the Weather History Date:

Tuesday, October 15, 2013

  Actual Average Record
Temperature  
Mean Temperature 55 °F -  
Max Temperature 61 °F 58 °F 77 °F (1999)
Min Temperature 50 °F 36 °F 21 °F (2006)
Degree Days  
Heating Degree Days 10    
Growing Degree Days 5 (Base 50)    
Moisture  
Dew Point 49 °F    
Average Humidity 82    
Maximum Humidity 94    
Minimum Humidity 66    
Precipitation  
Precipitation 0.30 in - - ()
Sea Level Pressure  
Sea Level Pressure 29.83 in    
Wind  
Wind Speed 10 mph (South)    
Max Wind Speed 14 mph    
Max Gust Speed 22 mph    
Visibility 7 miles    
Events Rain    
Averages and records for this station are not official NWS values.
T = Trace of Precipitation, MM = Missing Value Source: NWS Daily Summary

Daily Weather History Graph

Daily Weather History Graph

Search for Another Location

Airport or City:

Trip Planner

Search our weather history database for the weather conditions in past years. The results will help you decide how hot, cold, wet, or windy it might be!

Date:

Astronomy

Oct. 15, 2013 Rise Set
Actual Time 7:14 AM CDT 6:17 PM CDT
Civil Twilight 6:46 AM CDT 6:46 PM CDT
Nautical Twilight 6:13 AM CDT 7:19 PM CDT
Astronomical Twilight 5:40 AM CDT 7:51 PM CDT
Moon 4:26 PM CDT (10/15) 3:32 AM CDT (10/15)
Length of Visible Light 12h 00m
Length of Day
11h 02m
Waxing Gibbous, 88% of the Moon is Illuminated
Oct 15
Waxing Gibbous
Oct 18
Full
Oct 26
Last Quarter
Nov 3
New
Nov 9
First Quarter

Hourly Weather History & Observations

Time (CDT) Temp. Dew Point Humidity Pressure Visibility Wind Dir Wind Speed Gust Speed Precip Events Conditions
12:56 AM 51.1 °F 44.1 °F 77% 30.06 in 10.0 mi East 9.2 mph - N/A   Clear
1:56 AM 53.1 °F 45.0 °F 74% 30.02 in 10.0 mi East 13.8 mph 18.4 mph N/A   Scattered Clouds
2:56 AM 53.1 °F 46.0 °F 77% 29.99 in 10.0 mi East 9.2 mph - 0.00 in Rain Light Rain
3:56 AM 55.0 °F 46.0 °F 72% 29.95 in 10.0 mi SE 13.8 mph 21.9 mph 0.00 in   Overcast
4:56 AM 52.0 °F 48.0 °F 86% 29.93 in 7.0 mi East 12.7 mph - 0.06 in Rain Light Rain
5:56 AM 52.0 °F 48.9 °F 89% 29.90 in 7.0 mi ESE 9.2 mph - 0.04 in Rain Light Rain
6:16 AM 51.8 °F 48.2 °F 88% 29.90 in 4.0 mi ESE 6.9 mph - 0.01 in Rain Light Rain
6:30 AM 51.8 °F 48.2 °F 88% 29.89 in 6.0 mi ESE 9.2 mph - 0.01 in Rain Light Rain
6:42 AM 51.8 °F 48.2 °F 88% 29.89 in 2.5 mi ESE 11.5 mph - 0.03 in Rain Rain
6:56 AM 52.0 °F 50.0 °F 93% 29.88 in 2.0 mi SE 11.5 mph 19.6 mph 0.07 in Rain Light Rain
7:10 AM 51.8 °F 50.0 °F 94% 29.88 in 3.0 mi ESE 9.2 mph - 0.03 in Rain Rain
7:56 AM 53.1 °F 51.1 °F 93% 29.85 in 4.0 mi ESE 10.4 mph - 0.07 in Rain Light Rain
8:56 AM 54.0 °F 52.0 °F 93% 29.85 in 6.0 mi SSE 4.6 mph - 0.05 in Rain Light Rain
9:56 AM 55.0 °F 53.1 °F 93% 29.83 in 3.0 mi SE 6.9 mph - 0.00 in   Overcast
10:24 AM 55.4 °F 53.6 °F 94% 29.82 in 5.0 mi ESE 4.6 mph - 0.01 in   Overcast
10:56 AM 57.0 °F 54.0 °F 89% 29.80 in 6.0 mi SSE 6.9 mph - 0.01 in   Overcast
11:56 AM 57.0 °F 55.0 °F 93% 29.79 in 5.0 mi SSE 6.9 mph - N/A   Overcast
12:56 PM 57.9 °F 55.9 °F 93% 29.75 in 4.0 mi South 6.9 mph - N/A   Overcast
1:43 PM 60.8 °F 57.2 °F 88% 29.74 in 5.0 mi SSW 6.9 mph - N/A   Overcast
1:56 PM 59.0 °F 55.0 °F 87% 29.74 in 7.0 mi WSW 10.4 mph - N/A   Overcast
2:14 PM 59.0 °F 53.6 °F 82% 29.75 in 10.0 mi WSW 9.2 mph - N/A   Overcast
2:56 PM 59.0 °F 52.0 °F 78% 29.73 in 10.0 mi WSW 11.5 mph - N/A   Overcast
3:17 PM 60.8 °F 51.8 °F 72% 29.74 in 10.0 mi WSW 11.5 mph - N/A   Mostly Cloudy
3:56 PM 60.1 °F 48.9 °F 67% 29.73 in 10.0 mi West 11.5 mph - N/A   Mostly Cloudy
4:56 PM 55.9 °F 45.0 °F 67% 29.76 in 10.0 mi West 13.8 mph - N/A   Overcast
5:56 PM 54.0 °F 43.0 °F 66% 29.77 in 10.0 mi West 9.2 mph 18.4 mph N/A   Overcast
6:56 PM 54.0 °F 44.1 °F 69% 29.78 in 10.0 mi WSW 12.7 mph 20.7 mph N/A   Overcast
7:56 PM 53.1 °F 43.0 °F 69% 29.79 in 10.0 mi WSW 9.2 mph - N/A   Overcast
8:56 PM 52.0 °F 43.0 °F 71% 29.80 in 10.0 mi SW 8.1 mph - N/A   Overcast
9:56 PM 51.1 °F 43.0 °F 74% 29.80 in 10.0 mi SW 9.2 mph - N/A   Overcast
10:56 PM 50.0 °F 44.1 °F 80% 29.79 in 10.0 mi WSW 4.6 mph - N/A   Overcast
11:56 PM 50.0 °F 44.1 °F 80% 29.78 in 10.0 mi SW 5.8 mph - N/A   Overcast